Location: Bogis-Bossey
(46.3500°N, 6.1667°E)
Time: 17:41:15
(UTC+00:00)

SPOT 3 Rocket - Pass Details

Date: 17 August 2022
Orbit: 778 x 794 km, 98.7° (Epoch: 01 October)

Event Time Altitude Azimuth Distance (km) Brightness Sun altitude
Exits shadow 19:45:33 14° 121° (ESE) 2,078 5.1 -10.7°
Maximum altitude 19:49:18 32° 65° (ENE) 1,331 4.5 -11.3°
Drops below altitude 10° 19:53:52 10° 3° (N) 2,360 6.5 -11.9°
Sets 19:56:23 0° 354° (N) 3,291 7.4 -12.3°
